#timestamp,LO_Frequency,Hit,StdDev 
1686877215.7,286046999.3,N
1686877235.5,286046999.4,N
1686877255.3,286046999.6,N
1686877275.2,286046996.5,Y
1686877295.0,286046998.9,P
1686877295.9,286046998.9,P
1686877315.8,286047000.8,N
1686877335.6,286047001.0,N
1686877355.4,286046998.1,N
1686877375.3,286046998.1,N
1686877395.1,286046999.9,N
1686877415.8,286046998.1,N
1686877435.7,286047000.8,N
1686877455.5,286047000.6,N
1686877475.4,286047001.0,N
1686877495.2,286047000.5,N
1686877515.0,286047000.0,N
1686877515.9,286047000.0,N
1686877535.8,286047002.7,N
1686877555.6,286047002.6,N
1686877575.4,286047001.9,N
1686877595.3,286047002.0,N
1686877615.1,286047002.3,N
1686877635.9,286047000.1,N
1686877655.7,286046999.8,N
1686877675.5,286047002.4,N
1686877695.4,286047002.2,N
1686877715.2,286047002.1,N
1686877735.0,286047002.7,N
1686877736.0,286047002.7,N
1686877755.8,286047000.0,N
1686877775.6,286047002.5,N
1686877795.5,286047002.7,N
1686877815.3,286046999.8,N
1686877835.1,286047000.1,N
1686877855.9,286047000.2,N
1686877875.7,286047000.1,N
1686877895.6,286047002.6,N
1686877915.4,286047002.3,N
1686877935.2,286046999.7,N
1686877955.1,286046999.9,N
1686877956.0,286046999.9,N
1686877975.8,286047002.5,N
1686877995.6,286047002.0,N
1686878015.5,286047002.4,N
1686878035.3,286047002.8,N
1686878055.2,286047002.7,N
1686878075.9,286047000.2,N
1686878095.7,286046999.7,N
1686878115.6,286047000.3,N
1686878135.4,286047000.3,N
1686878155.2,286047000.3,N
1686878175.1,286047000.9,N
1686878176.0,286047000.9,N
1686878195.8,286047000.5,N
1686878215.7,286047000.3,N
1686878235.5,286047002.8,N
1686878255.3,286047000.2,N
1686878275.2,286046999.7,N
1686878295.0,286046999.9,N
1686878295.9,286046999.9,N
1686878315.8,286047000.0,N
1686878335.6,286047000.5,N
1686878355.4,286047000.0,N
1686878375.3,286047002.7,N
1686878395.1,286047001.0,N
1686878415.9,286047000.7,N
1686878435.7,286047000.0,N
1686878455.5,286047000.6,N
1686878475.4,286047000.5,N
1686878495.2,286047000.9,N
1686878515.1,286046998.5,N
1686878516.0,286046998.5,N
1686878535.8,286047000.8,N
1686878555.6,286047000.8,N
1686878575.5,286047000.8,N
1686878595.3,286046998.6,N
1686878615.2,286046998.9,N
1686878635.9,286046998.7,N
1686878655.7,286046999.1,N
1686878675.6,286046996.6,Y
1686878695.4,286046997.3,P
1686878715.2,286046994.9,P
1686878735.1,286046997.7,N
1686878736.0,286046997.7,N
1686878755.8,286046996.5,N
1686878775.7,286046996.9,N
1686878795.5,286046996.8,N
1686878815.3,286046997.5,N
1686878835.2,286046997.7,N
1686878855.0,286046994.9,Y
1686878855.9,286046994.9,P
1686878875.8,286046998.5,N
1686878895.6,286046998.3,N
1686878915.4,286046998.7,N
1686878935.3,286046998.5,N
1686878955.1,286046998.8,N
1686878975.9,286046998.8,N
1686878995.7,286046999.0,N
1686879015.5,286046996.9,N
1686879035.4,286046996.6,N
1686879055.2,286046996.9,N
1686879075.0,286046999.5,N
1686879075.9,286046999.5,N
1686879095.8,286046999.6,N
1686879145.6,286046996.3,E
1686879155.6,286046997.4,N
1686879175.4,286046999.4,P
1686879195.2,286046999.3,N
1686879215.1,286046999.3,N
1686879216.0,286046999.3,N
1686879235.8,286046998.6,N
1686879255.7,286047000.6,N
1686879275.5,286047000.5,N
1686879295.3,286046998.6,N
1686879315.2,286046998.5,N
1686879335.0,286046998.7,N
1686879335.9,286046998.7,N
1686879355.7,286046998.9,N
1686879375.6,286046998.2,N
1686879395.4,286046998.9,N
1686879415.3,286046998.9,N
1686879435.1,286047000.6,N
1686879436.0,286047000.6,N
1686879455.8,286047000.7,N
1686879475.7,286046998.5,N
1686879495.5,286046999.3,N
1686879515.3,286046999.5,N
1686879535.2,286046999.2,N
1686879555.0,286046998.7,N
1686879555.9,286046998.7,N
1686879575.8,286046999.1,N
1686879595.6,286046999.0,N
1686879615.4,286046999.5,N
1686879635.3,286046999.2,N
1686879655.1,286046997.2,Y
1686879675.8,286046996.8,P
1686879695.7,286046999.1,N
1686879715.5,286046999.0,N
1686879735.4,286046999.5,N
1686879755.2,286046997.3,N
1686879775.0,286046997.7,N
1686879775.9,286046997.7,N
1686879795.8,286046995.1,Y
1686879815.6,286046996.6,P
1686879835.4,286046999.4,N
1686879855.3,286046996.6,N
1686879875.1,286046998.9,N
1686879895.9,286046999.1,N
1686879915.2,286046996.9,N
1686879935.0,286046999.2,N
1686879935.9,286046999.2,N
1686879955.8,286046996.5,Y
1686879975.6,286046999.9,P
1686879995.4,286047000.6,N
1686880015.3,286047000.8,N
1686880035.1,286047000.9,N
1686880055.8,286047000.7,N
1686880075.7,286046998.5,N
1686880095.5,286047000.6,N
1686880115.4,286046998.1,N
1686880135.2,286047001.1,N
1686880155.0,286047000.7,N
1686880155.9,286047000.7,N
1686880175.8,286047001.0,N
1686880195.6,286047000.9,N
1686880215.4,286047000.5,N
1686880235.3,286047001.1,N
1686880255.1,286047000.4,N
1686880275.9,286047000.3,N
1686880295.7,286047000.0,N
1686880315.5,286047000.3,N
1686880335.4,286046998.3,N
1686880355.2,286046998.2,N
1686880375.1,286046998.3,N
1686880376.0,286046998.3,N
1686880395.8,286047000.8,N
1686880415.6,286047001.0,N
1686880435.5,286047000.3,N
1686880455.3,286046999.8,N
1686880475.2,286046999.7,N
1686880495.9,286047002.4,N
1686880515.7,286047000.5,N
1686880535.6,286047000.2,N
1686880555.4,286046998.6,N
1686880575.2,286046998.8,N
1686880595.1,286046999.4,N
1686880596.0,286046999.4,N
1686880615.8,286046999.6,N
1686880635.7,286046996.5,Y
1686880655.5,286046999.2,P
1686880675.3,286046999.4,N
1686880695.2,286046999.0,P
1686880715.0,286046996.6,Y
1686880715.9,286046996.6,P
1686880735.8,286046996.5,N
1686880755.6,286046999.1,N
1686880775.4,286046999.6,N
1686880795.3,286046999.1,N
